DW7680 Weather Reports


Display with metric or nautical units.
time (UTC)temp
F
wind
direction
speed
MPH
gust
MPH
rain 1hr
in
rain 24hr
in
rain mn
in
humidity
%
barometer
mb
20260906001600 69 278 2.0 7.0 0.00 0.02 0.01 70 1011.0
20260906000101 69 300 2.0 7.0 0.00 0.02 0.01 68 1011.3
20260906000003 69 327 1.0 7.0 0.00 0.02 0.01 68 1011.3
20260905234614 69 287 3.0 8.0 0.00 0.02 0.01 68 1011.1
20260905233059 69 252 3.0 11.0 0.00 0.02 0.01 66 1011.1
20260905231600 69 209 5.0 11.0 0.00 0.02 0.01 69 1011.0
20260905230001 71 153 3.0 5.0 0.00 0.02 0.01 63 1010.9
20260905224609 72 123 2.0 8.0 0.00 0.02 0.01 63 1010.8
20260905223059 71 140 5.0 10.0 0.00 0.02 0.01 63 1010.9
20260905221601 71 129 6.0 11.0 0.00 0.02 0.01 66 1010.9
20260905220100 72 96 2.0 4.0 0.00 0.02 0.01 63 1010.8
20260905220002 72 88 1.0 4.0 0.00 0.02 0.01 62 1010.8
20260905214609 72 92 3.0 8.0 0.00 0.02 0.01 65 1011.2
20260905213109 72 245 0.0 3.0 0.00 0.02 0.01 62 1011.6
20260905211602 71 292 2.0 9.0 0.00 0.02 0.01 66 1011.7
20260905210100 70 302 2.0 7.0 0.00 0.02 0.01 69 1011.9
20260905210004 70 302 3.0 6.0 0.00 0.02 0.01 68 1011.9
20260905204559 69 287 2.0 8.0 0.00 0.02 0.01 71 1012.2
20260905203102 68 244 6.0 11.0 0.00 0.02 0.01 71 1012.2
20260905201606 67 249 6.0 10.0 0.00 0.02 0.01 73 1012.1
20260905200001 67 240 3.0 7.0 0.00 0.02 0.01 77 1012.1
20260905194601 66 256 3.0 9.0 0.00 0.02 0.01 80 1012.4
20260905193100 66 279 3.0 6.0 0.00 0.02 0.01 77 1012.6
20260905191613 66 260 5.0 10.0 0.00 0.02 0.01 77 1012.9
20260905190100 64 299 5.0 11.0 0.00 0.02 0.01 78 1013.1
20260905190005 64 265 4.0 11.0 0.00 0.02 0.01 77 1013.1
20260905184610 62 262 4.0 8.0 0.01 0.09 0.01 81 1013.6
20260905183102 61 274 5.0 8.0 0.01 0.09 0.01 80 1013.3
20260905181559 61 300 2.0 9.0 0.01 0.09 0.01 79 1013.3
20260905180100 60 294 5.0 10.0 0.01 0.09 0.01 78 1013.2
20260905180003 60 320 5.0 10.0 0.01 0.09 0.01 79 1013.2
20260905174606 62 280 7.0 11.0 0.00 0.08 0.00 76 1013.4
20260905173110 68 245 13.0 30.0 0.00 0.08 0.00 59 1013.6
20260905171559 77 88 4.0 14.0 0.00 0.08 0.00 50 1012.6
20260905170059 77 15 4.0 11.0 0.00 0.08 0.00 51 1012.4
20260905170001 77 44 4.0 11.0 0.00 0.08 0.00 51 1012.4
20260905164600 77 91 7.0 12.0 0.00 0.08 0.00 50 1012.6
20260905163106 77 145 3.0 7.0 0.00 0.08 0.00 52 1012.4
20260905161600 76 272 1.0 4.0 0.00 0.08 0.00 54 1012.7
20260905160100 75 112 2.0 6.0 0.00 0.08 0.00 55 1012.6
20260905160002 75 165 1.0 5.0 0.00 0.08 0.00 54 1012.6
20260905154559 75 129 1.0 4.0 0.00 0.08 0.00 56 1012.8
20260905153102 73 138 1.0 3.0 0.00 0.08 0.00 61 1013.0
20260905151559 70 288 0.0 3.0 0.00 0.08 0.00 69 1013.0
20260905150101 68 288 1.0 5.0 0.00 0.08 0.00 72 1013.2
20260905150002 67 236 1.0 5.0 0.00 0.08 0.00 72 1013.2
20260905144559 65 257 2.0 6.0 0.00 0.08 0.00 74 1013.2
20260905143100 63 291 2.0 4.0 0.00 0.08 0.00 77 1013.3
20260905141613 61 283 1.0 5.0 0.00 0.08 0.00 80 1013.3
20260905140105 60 258 3.0 8.0 0.00 0.08 0.00 81 1013.2
20260905134607 59 289 3.0 9.0 0.00 0.08 0.00 82 1013.2
20260905133100 57 319 3.0 8.0 0.00 0.08 0.00 84 1012.9
20260905131600 57 284 3.0 8.0 0.00 0.08 0.00 85 1012.9
20260905130101 56 281 4.0 8.0 0.00 0.08 0.00 85 1012.7
20260905130000 56 284 5.0 8.0 0.00 0.08 0.00 85 1012.7
20260905124559 56 271 4.0 10.0 0.00 0.08 0.00 85 1012.5
20260905123101 56 270 4.0 8.0 0.00 0.08 0.00 85 1012.4
20260905121600 56 285 4.0 9.0 0.00 0.08 0.00 85 1012.3
20260905120100 56 273 2.0 7.0 0.00 0.08 0.00 85 1012.3
20260905114628 56 259 5.0 10.0 0.00 0.08 0.00 84 1012.2
20260905113100 56 276 5.0 8.0 0.00 0.08 0.00 84 1011.9
20260905111558 56 266 5.0 9.0 0.00 0.08 0.00 84 1011.8
20260905110058 56 263 5.0 9.0 0.00 0.08 0.00 84 1011.7
20260905104559 56 263 4.0 8.0 0.00 0.08 0.00 83 1011.6
20260905103100 56 285 3.0 9.0 0.00 0.08 0.00 83 1011.4
20260905101559 56 262 4.0 8.0 0.00 0.08 0.00 83 1011.3
20260905100114 57 265 5.0 9.0 0.00 0.08 0.00 82 1011.2
20260905094617 57 275 5.0 9.0 0.00 0.08 0.00 82 1011.2
20260905093059 57 274 5.0 9.0 0.00 0.08 0.00 82 1011.3
20260905091614 57 272 4.0 8.0 0.00 0.08 0.00 82 1011.5
20260905090058 57 250 2.0 7.0 0.00 0.08 0.00 82 1011.5
20260905084558 57 276 5.0 9.0 0.00 0.08 0.00 82 1011.2
20260905083100 57 267 5.0 9.0 0.00 0.08 0.00 82 1011.1
20260905081558 57 282 4.0 9.0 0.00 0.08 0.00 81 1011.1
20260905080058 57 292 4.0 10.0 0.00 0.08 0.00 81 1011.5
20260905074602 57 289 5.0 9.0 0.00 0.08 0.00 81 1011.7
20260905073107 58 292 4.0 10.0 0.00 0.08 0.00 81 1011.6
20260905071558 58 262 5.0 9.0 0.00 0.08 0.00 81 1011.4
20260905070058 58 290 4.0 8.0 0.00 0.08 0.00 80 1011.5
20260905070002 58 276 4.0 8.0 0.00 0.08 0.00 80 1011.5
20260905064614 58 284 4.0 9.0 0.00 0.08 0.00 80 1011.3
20260905063001 58 244 5.0 9.0 0.00 0.08 0.00 80 1011.4
20260905061502 58 265 4.0 10.0 0.00 0.08 0.00 80 1011.4
20260905060011 59 273 4.0 8.0 0.00 0.08 0.08 80 1011.7
20260905054604 59 273 4.0 10.0 0.00 0.08 0.08 80 1011.5
20260905053102 59 286 4.0 9.0 0.00 0.08 0.08 80 1011.7
20260905051611 59 267 5.0 8.0 0.00 0.08 0.08 80 1011.7
20260905050107 59 259 3.0 6.0 0.00 0.08 0.08 80 1011.4
20260905050002 59 258 2.0 5.0 0.00 0.08 0.08 80 1011.4
20260905044602 60 273 3.0 7.0 0.00 0.08 0.08 80 1011.7
20260905043100 60 271 4.0 7.0 0.00 0.08 0.08 82 1011.9
20260905041602 60 327 3.0 8.0 0.00 0.08 0.08 83 1011.8
20260905040003 61 279 3.0 6.0 0.00 0.08 0.08 83 1011.9
20260905034501 62 263 1.0 3.0 0.00 0.08 0.08 82 1011.7
20260905033006 63 263 1.0 3.0 0.00 0.08 0.08 83 1011.8
20260905031503 64 263 0.0 3.0 0.01 0.08 0.08 82 1011.6
20260905030004 64 263 2.0 3.0 0.01 0.08 0.08 78 1011.5
20260905024600 65 263 0.0 4.0 0.01 0.08 0.08 78 1011.4
20260905023127 65 263 0.0 4.0 0.01 0.08 0.08 77 1011.1
20260905021601 65 227 3.0 8.0 0.00 0.07 0.07 78 1011.0
20260905020104 65 274 2.0 4.0 0.00 0.07 0.07 79 1010.5
20260905014606 66 271 2.0 3.0 0.00 0.07 0.07 77 1010.3
20260905013059 68 259 1.0 3.0 0.00 0.07 0.07 74 1010.3
20260905011605 70 259 1.0 2.0 0.00 0.07 0.07 68 1010.2
20260905010059 71 259 1.0 2.0 0.00 0.07 0.07 66 1009.9
20260905010001 72 259 1.0 2.0 0.00 0.07 0.07 65 1009.9
20260905004600 72 259 0.0 1.0 0.00 0.07 0.07 64 1010.0
20260905003100 73 259 0.0 3.0 0.00 0.07 0.07 63 1010.1